Tracking 31027 objects as of 19-Jul-2025
HD Live streaming from Space Station
objects crossing your sky now

GLOBALSTAR DEB

Track GLOBALSTAR DEB now!
10-day predictions


NORAD ID: 27772
Int'l Code: 1999-031F
Perigee: 964.3 km
Apogee: 1,074.0 km
Inclination: 52.0 °
Period: 105.4 minutes
Semi major axis: 7390 km
RCS: 0.0157 m2 (small)
Launch date: June 10, 1999
Source: Globalstar (GLOB)
Launch site: AIR FORCE EASTERN TEST RANGE (AFETR)

Note: This is SATELLITE DEBRIS
Your satellite tracking list
FLOCK 3P 17
Track 1 satellite(s)




NASA's NSSDC Master Catalog

Two Line Element Set (TLE):
1 27772U 99031F   25198.68536664  .00005626  00000-0  67871-2 0  9996
2 27772  52.0110 301.3604 0074196  52.8110  89.9551 13.66542833101029
Source of the keplerian elements: AFSPC